Location: Anmer
(52.8333°N, 0.5833°E)
Time: 20:37:13
(UTC+00:00)

Cosmos 1833 - Pass Details

Date: 15 May 2026
Orbit: 833 x 865 km, 70.9° (Epoch: 8 June)

Event Time Altitude Azimuth Distance (km) Brightness Sun altitude
Exits shadow 21:44:10 10° 186° (S) 2,431 6.1 -12.8°
Maximum altitude 21:49:31 50° 112° (ESE) 1,058 4.4 -13.2°
Drops below altitude 10° 21:54:56 10° 39° (NE) 2,458 6.9 -13.6°
Sets 21:57:25 0° 34° (NE) 3,393 7.7 -13.8°
